Tracking 25612 objects as of 20-May-2022
HD Live streaming from Space Station
objects crossing your sky now

CZ-2C DEB

Track CZ-2C DEB now!
10-day predictions


NORAD ID: 38863
Int'l Code: 2012-056D
Perigee: 601.4 km
Apogee: 623.0 km
Inclination: 97.7 °
Period: 96.8 minutes
Semi major axis: 6983 km
RCS: 4.6535 m2 (large)
Launch date: October 14, 2012
Source: People's Republic of China (PRC)
Launch site: Taiyaun Space Center, China (TSC)

Note: This is SATELLITE DEBRIS
aabbcc
Your satellite tracking list
Your tracking list is empty




NASA's NSSDC Master Catalog

Two Line Element Set (TLE):
1 38863U 12056D   22139.88782857  .00005632  00000-0  62239-3 0  9993
2 38863  97.7200 213.5770 0015481  46.6230 313.6273 14.87710091519862
Source of the keplerian elements: AFSPC